INTELSAT 33E DEB, 61995

Orbit data source: Space-Track

INTELSAT 33E DEB, 61995 is space debris in GEO originally from a launch on Wed, 24 Aug 2016 UTC launched from the French Guiana (FRGUI). Debris objects in space refer to the collection of defunct objects orbiting the Earth. Examples of debris include non-operational satellites, rocket bodies, and fragments generated from explosions, collisions, or faulty payload assembly.

Loading next visibility...
Identifier
61995, 2016-053M
Orbit
GEO
Country
Flag of USUS / ITSO
Related business
Manufacturer
Boeing/ES
Mission
Spacecraft
Bus & Motor
Unknown
Mass
Unknown
Launch date (UTC)
2016-08-24 (10 years ago)
Launch vehicle
Unknown
Launch site
French Guiana (FRGUI)
Object type
Payload
Rocket body
Debris
Shape & HBR
Unknown shape, 1.1 m
Radar Cross Section
RCS unknown

Expand to show TLE details & history
Last TLE update: 23 hours ago

TLE from 23 hours ago
0 INTELSAT 33E DEB
1 61995U 16053M   26165.70526744 -.00000266  00000-0  00000+0 0  9994
2 61995   1.5378  82.7581 0053692 285.6246  72.7702  1.01040148  6106
Epoch: 2026-06-14T16:55Z
TLE epoch observation values (Epoch: 2026-06-14T16:55:35.106Z)
Latitude
-0°
Longitude
-75.15924°
Altitude
35,506.086 km
Speed
3.087 km/s
True Right ascension
05h 26m 57s
True Declination
0° 00' 00"
Sunlit
Object was in daylight at epoch
Visualization orbit readout
Latitude
Unknown
Longitude
Unknown
Altitude
Unknown
Speed
Unknown
Apparent Right ascension
Unknown
Apparent Declination
Unknown
Sunlit
N/A
Visualization observer readout
Local Sidereal Time
02:33:24
Azimuth
Unknown
Elevation
Unknown
Doppler factor
Unknown
Orbital elements
Apogee altitude
35,798.883 km
Perigee altitude
35,348.388 km
Semi-major axis
41,951.773 km
Eccentricity
0.00537
Inclination
1.5378°
RAAN
82.7581°
Arg. of periapsis
285.6246°
True anomaly
73.35901°
Mean anomaly
72.7702°
Eccentric anomaly
73.06449°
Mean motion
0.25259 °/min
Orbital period
1,425.23 mins
BSTAR
0
Loading maneuver chart data...
Computing Atmospheric mass density...
Loading historical data...
Loading historical data...
Loading historical data...
Loading historical data...
Loading historical data...
Loading historical data...
Loading historical data...

Documentation

Showing up to 5 results
|